Location: Pine Mountain Observatory
(43.7910°N, 120.9377°W)
Time: 15:27:54
(UTC-07:00)

ISS - Visible Passes

Search period start: 25 April 2019 00:00
Search period end: 05 May 2019 00:00
Orbit: 408 x 410 km, 51.6° (Epoch: 26 April)

Date Brightness Start Highest point End Pass type
(mag) Time Alt. Az. Time Alt. Az. Time Alt. Az.
29 Apr -1.8 04:52:06 10° S 04:54:42 22° SE 04:57:20 10° E visible
30 Apr -1.3 04:03:16 12° SSE 04:04:04 12° SE 04:05:33 10° ESE visible
01 May -3.3 04:47:11 18° SW 04:49:22 52° SE 04:52:36 10° ENE visible
02 May -2.5 03:58:16 28° SSE 03:58:36 29° SE 04:01:31 10° ENE visible
03 May -1.1 03:09:17 14° ESE 03:09:17 14° ESE 03:10:07 10° E visible
03 May -3.7 04:42:01 20° WSW 04:44:09 68° NNW 04:47:27 10° NE visible
04 May -3.9 03:52:59 65° S 03:53:16 71° SE 03:56:34 10° ENE visible
